Location: Aalen
(48.8330°N, 10.1000°E)
Time: 11:09:41
(UTC+02:00)

S-56A Canister/Altair - Pass Details

Date: 07 August 2021
Orbit: 632 x 2500 km, 38.9° (Epoch: 21 September)

Event Time Altitude Azimuth Distance (km) Brightness Sun altitude
Rises 20:01:23 0° 279° (W) 5,958 14.4 6.4°
Reaches altitude 10° 20:05:42 10° 271° (W) 5,076 13.5 5.7°
Maximum altitude 20:17:57 33° 217° (SW) 3,608 11.2 3.8°
Drops below altitude 10° 20:29:33 10° 161° (SSE) 4,774 11.2 2.0°
Sets 20:33:30 0° 152° (SSE) 5,567 11.4 1.4°
